Regional Weather Roundup
Issued by NWS

Home | Current Version | Previous Version | Graphics & Text | Print | Product List | Glossary Off
Versions: 1 2 3 4 5 6 7 8 9 10 11 12 13 14 15 16 17 18 19 20 21 22 23 24 25 26 27 28 29 30 31 32 33 34 35 36 37 38 39 40 41 42 43 44 45 46 47 48 49 50

089
ASUS43 KDTX 250110
RWRMI
MICHIGAN HOURLY REGIONAL WEATHER ROUNDUP
NATIONAL WEATHER SERVICE DETROIT/PONTIAC MI
900 PM EDT SAT JUN 24 2017

NOTE: "FAIR" INDICATES FEW OR NO CLOUDS BELOW 12,000 FEET WITH NO
SIGNIFICANT WEATHER AND/OR OBSTRUCTION TO VISIBILITY.

MIZ047>049-052>055-059>063-066>070-074>076-081>083-250200-
SOUTHEAST LOWER MICHIGAN

CITY           SKY/WX    TMP DP  RH WIND       PRES   REMARKS
ADRIAN         CLEAR     68  49  50 NW10      29.99R
ALMA           CLEAR     65  44  46 W10G20    29.95S
ANN ARBOR      CLEAR     67  49  52 W10       29.96R
BAD AXE        CLOUDY    62  55  77 W8        29.93R
CARO           PTCLDY    64  54  72 NW5       29.93S
DETROIT CITY   CLEAR     71  47  42 W9G22     29.94R
DETROIT        PTCLDY    70  49  47 W13       29.96R
FLINT          CLEAR     67  47  48 W13       29.95R
GROSSE ILE     PTCLDY    70  49  46 W9        29.94R
HILLSDALE      CLEAR     64  46  52 W7        30.00R
HOWELL         CLEAR     65  45  47 W7        29.96S

CITY           SKY/WX    TMP DP  RH WIND       PRES   REMARKS
JACKSON        CLEAR     65  47  52 W9        29.98R
LAMBERTVILLE   CLEAR     69  49  48 W5        29.97R
LANSING        PTCLDY    68  45  43 W8        29.97R
LAPEER         FAIR      64  54  68 CALM      29.95R
MASON          CLEAR     66  47  49 W9G16     29.98R
MONROE         CLEAR     69  50  51 W8        29.95R
MT. CLEMENS    PTCLDY    70  51  52 W12G20    29.91R
PONTIAC        PTCLDY    68  50  52 W13       29.94R
PORT HOPE        N/A     63  55  75 VRB7      29.89R
PORT HURON     CLEAR     64  54  68 W5        29.93R
TRI CITIES     PTCLDY    64  58  80 CALM      29.94R
MIDLAND        MOCLDY    62  59  89 CALM      29.93R
TROY           CLEAR     71  45  39 W13G21    29.96R
SAGINAW HB     PTCLDY    63  55  77 CALM      29.93S
$$
MIZ043>046-050>051-056>058-064>065-071>073-077>080-250200-
SOUTHWEST LOWER MICHIGAN

CITY           SKY/WX    TMP DP  RH WIND       PRES   REMARKS
BATTLE CREEK   CLEAR     65  47  52 W7        30.00R
BENTON HARBOR  PTCLDY    67  52  58 W9        30.00R
BIG RAPIDS     CLEAR     63  45  51 W5        29.95R
COLDWATER      CLEAR     66  44  45 W6        30.00R
FREMONT        MOCLDY    65  44  46 W6        29.96S
HOLLAND        CLOUDY    66  52  60 W6        29.99R
GRAND RAPIDS   CLOUDY    67  45  45 W10       29.97S
IONIA          FAIR      65  43  44 W7        29.96S
KALAMAZOO      CLEAR     67  44  43 W8        30.00R
LUDINGTON      CLOUDY    62  54  73 SW7       29.94R
MARSHALL       CLEAR     65  46  51 W6        29.99R
MOUNT PLEASANT CLEAR     64  46  50 W8        29.94R
MUSKEGON       MOCLDY    65  51  60 W9        29.97S
SOUTH HAVEN    PTCLDY    67  53  60 W6        29.99S
$$
MIZ016>042-250200-
NORTHERN LOWER MICHIGAN

CITY           SKY/WX    TMP DP  RH WIND       PRES   REMARKS
ALPENA         CLOUDY    62  57  83 CALM      29.90R
BEAVER ISLAND  CLOUDY    59  57  94 W6        29.90S
BELLAIRE       MOCLDY    61  55  80 CALM      29.92S
CADILLAC       CLEAR     60  49  66 W6        29.94R
CHARLEVOIX     DRIZZLE   58  56  93 SW5       29.94S
FRANKFORT      CLOUDY    61  53  75 CALM      29.93S
GAYLORD        LGT RAIN  59  54  83 SW6       29.92S
GRAYLING       MOCLDY    57  55  93 CALM      29.94S
HARBOR SPRINGS LGT RAIN  58  58  99 CALM      29.91S
HOUGHTON LAKE  CLOUDY    59  56  89 CALM      29.94R
MANISTEE       PTCLDY    63  54  72 NW6       29.94R
OSCODA         LGT RAIN  58  55  88 SW6       29.91R
PELLSTON       CLOUDY    62  52  69 NW6       29.90R
ROGERS CITY    CLOUDY    59  55  88 CALM      29.90S
TRAVERSE CITY  MOCLDY    62  52  69 W8        29.91R
$$
MIZ007>008-015-250200-
EASTERN UPPER MICHIGAN

CITY           SKY/WX    TMP DP  RH WIND       PRES   REMARKS
KINROSS        CLOUDY    57  47  69 NW9       29.89S
MACKINAC ISLAN CLOUDY    60  55  85 W6        29.89R
NEWBERRY       CLOUDY    58  49  73 NW6       29.90S
S. S. MARIE    PTCLDY    59  48  67 W9        29.88R
MUNISING         N/A     55  54  96 N6        29.91S
$$
MIZ004>006-011>014-085-250200-
CENTRAL UPPER MICHIGAN

CITY           SKY/WX    TMP DP  RH WIND       PRES   REMARKS
MANISTIQUE     LGT RAIN  55  51  89 NW3       29.90R
ESCANABA       LGT RAIN  56  54  93 VRB3      29.91F
MENOMINEE      MOCLDY    59  53  80 N7        29.93R
SAWYER-GWINN   LGT RAIN  54  52  94 CALM      29.92R
$$
MIZ001>003-009>011-084-250200-
WESTERN UPPER MICHIGAN

CITY           SKY/WX    TMP DP  RH WIND       PRES   REMARKS
IRON MOUNTAIN  CLOUDY    54  50  86 W8        29.92R
HOUGHTON       CLOUDY    53  50  89 NW12      29.91S
COPPER HARBOR    N/A     54  52  93 N8        29.91R
IRONWOOD       RAIN      54  52  93 SW3       29.95S
$$

ABBREVIATIONS USED IN REMARKS
   TC - TEMPERATURE IN CELSIUS
  WCI - WIND CHILL INDEX
   HX - HEAT INDEX
  VSB - VISIBILITY





USA.gov is the U.S. government's official web portal to all federal, state and local government web resources and services.